This is the latest recevied weather packets stored in our database for station/object M0TUM-1. If no packets are shown the sender has not sent any weather packets the latest 1 day(s).
| Time | Temp. | Humidity | Pressure | Rain* | Wind** | Luminosity | Snow |
|---|---|---|---|---|---|---|---|
| 1778005886 | 11.11° C | 74% | 1013 hPa | 0 mm | 2.68 m/s, 36° | 32 W/m² | - |
| 1778005581 | 11.11° C | 73% | 1012.9 hPa | 0 mm | 2.24 m/s, 0° | 32 W/m² | - |
| 1778005278 | 11.67° C | 72% | 1012.7 hPa | 0 mm | 1.79 m/s, 25° | 42 W/m² | - |
| 1778004975 | 11.67° C | 72% | 1012.6 hPa | 0 mm | 1.34 m/s, 169° | 46 W/m² | - |
| 1778004672 | 11.67° C | 71% | 1012.7 hPa | 0 mm | 1.34 m/s, 157° | 55 W/m² | - |
| 1778004368 | 11.67° C | 71% | 1012.7 hPa | 0 mm | 1.34 m/s, 3° | 55 W/m² | - |
| 1778004066 | 11.67° C | 71% | 1012.7 hPa | 0 mm | 2.68 m/s, 11° | 59 W/m² | - |
| 1778003761 | 11.67° C | 70% | 1012.8 hPa | 0 mm | 1.79 m/s, 213° | 69 W/m² | - |
| 1778003458 | 12.22° C | 70% | 1012.8 hPa | 0 mm | 2.24 m/s, 87° | 66 W/m² | - |
| 1778003155 | 12.22° C | 69% | 1012.6 hPa | 0 mm | 2.24 m/s, 75° | 76 W/m² | - |
| 1778002851 | 12.78° C | 69% | 1012.7 hPa | 0 mm | 1.34 m/s, 250° | 87 W/m² | - |
| 1778002548 | 12.78° C | 68% | 1012.8 hPa | 0 mm | 2.68 m/s, 342° | 125 W/m² | - |
| 1778002245 | 12.22° C | 70% | 1012.7 hPa | 0 mm | 0.89 m/s, 24° | 158 W/m² | - |
| 1778001942 | 12.78° C | 69% | 1012.9 hPa | 0 mm | 1.34 m/s, 344° | 150 W/m² | - |
| 1778001639 | 12.78° C | 69% | 1012.7 hPa | 0 mm | 2.68 m/s, 16° | 173 W/m² | - |
| 1778001334 | 12.22° C | 68% | 1012.5 hPa | 0 mm | 3.58 m/s, 22° | 185 W/m² | - |
| 1778001031 | 12.22° C | 68% | 1012.6 hPa | 0 mm | 4.92 m/s, 11° | 154 W/m² | - |
| 1778000728 | 12.78° C | 69% | 1012.7 hPa | 0 mm | 1.79 m/s, 19° | 131 W/m² | - |
| 1778000424 | 12.78° C | 69% | 1012.7 hPa | 0 mm | 0.45 m/s, 155° | 132 W/m² | - |
| 1778000119 | 12.78° C | 69% | 1012.7 hPa | 0 mm | 4.02 m/s, 4° | 181 W/m² | - |
| 1777999815 | 12.78° C | 69% | 1012.6 hPa | 0 mm | 1.34 m/s, 262° | 128 W/m² | - |
| 1777999511 | 12.78° C | 70% | 1012.7 hPa | 0 mm | 0 m/s | 160 W/m² | - |
| 1777999209 | 12.78° C | 71% | 1012.8 hPa | 0 mm | 1.79 m/s, 90° | 255 W/m² | - |
| 1777998907 | 12.78° C | 70% | 1012.7 hPa | 0 mm | 2.68 m/s, 16° | 120 W/m² | - |
| 1777998604 | 13.33° C | 69% | 1012.4 hPa | 0 mm | 4.92 m/s, 355° | 125 W/m² | - |
* Rain latest hour (hover to see other rain measurements)
** Current wind speed in m/s (hover to see current wind gust speed)